Location: ???????????
(54.6970°N, 39.1477°E)
Time: 13:50:25
(UTC+00:00)

SeaSat 1 - Pass Details

Date: 19 May 2025
Orbit: 738 x 740 km, 108.0° (Epoch: 19 June)

Event Time Altitude Azimuth Distance (km) Brightness Sun altitude
Exits shadow 18:17:28 - 126° (SE) 2,542 4.5 -5.8°
Reaches altitude 10° 18:18:12 10° 124° (SE) 2,249 4.3 -5.9°
Maximum altitude 18:22:57 54° 48° (NE) 906 2.9 -6.4°
Drops below altitude 10° 18:27:44 10° 333° (NNW) 2,262 6.5 -6.8°
Sets 18:30:02 0° 329° (NNW) 3,189 8.0 -7.0°
